User: anonymous   Login
Location: Zürich
(47.3769°N, 8.5417°E)
Time: 10:30:41
(UTC+02:00)
Language:

ISS - Orbit

View from above orbital plane
View from above orbital plane
View from above satellite
View from above satellite

Ground track
Ground track

The orbit data is extracted from the following two-line orbital elements,

1 25544U 98067A   24203.20862803  .00018824  00000-0  33531-3 0  9991
2 25544  51.6385 146.7903 0010217  90.0523  55.9045 15.50098767463829
Epoch (UTC): 21 July 2024 05:00:25
Eccentricity: 0.0010217
inclination: 51.6385°
perigee height: 409 km
apogee height: 423 km
right ascension of ascending node: 146.7903°
argument of perigee: 90.0523°
revolutions per day: 15.50098767
mean anomaly at epoch: 55.9045°
orbit number at epoch: 46382

The dashed part of the orbit path shows where the satellite is in the earth's shadow,  

DLR